Location: Gleizolles
(44.4833°N, 6.7667°E)
Time: 11:13:53
(UTC+00:00)

A-11 Canister half - Pass Details

Date: 17 June 2024
Orbit: 1515 x 1685 km, 47.2° (Epoch: 14 July)

Event Time Altitude Azimuth Distance (km) Brightness Sun altitude
Rises 23:02:17 0° 287° (WNW) 4,871 12.0 -21.7°
Reaches altitude 10° 23:05:28 10° 288° (WNW) 3,862 11.4 -21.8°
Maximum altitude 23:15:20 88° 202° (SSW) 1,589 9.0 -22.0°
Drops below altitude 10° 23:24:48 10° 112° (ESE) 3,721 10.8 -22.1°
Sets 23:27:48 0° 113° (ESE) 4,686 11.3 -22.1°
